Weather Roundup
Issued by NWS

Home | Current Version | Previous Version | Text Only | Print | Product List | Glossary On
Versions: 1 2 3 4 5 6 7 8 9 10 11 12 13 14 15 16 17 18 19 20 21 22 23 24 25 26 27 28 29 30 31 32 33 34 35 36 37 38 39 40 41 42 43 44 45 46 47 48 49 50
434
NZUS93 KARX 172159
HRRWXR

CURRENT HOURLY OBSERVATIONS ACROSS
MUCH OF THE UPPER MISSISSIPPI VALLEY
NATIONAL WEATHER SERVICE LA CROSSE WI
400 PM CST SUN DEC 17 2017


...SOUTHEAST MINNESOTA...


CITY           SKY/WX    TMP DP  RH WIND       PRES   REMARKS
ROCHESTER      CLOUDY    29  27  92 CALM      29.95S FOG
ROCHESTER/MAYO CLOUDY    29  29 100 CALM      29.96F
WINONA         CLOUDY    32  30  93 CALM      29.99S
AUSTIN         NOT AVBL
ALBERT LEA     NOT AVBL
DODGE CENTER   CLOUDY    27  27 100 CALM      29.95S FOG
PRESTON        CLOUDY    28  27  96 CALM      29.95F FOG
OWATONNA       CLOUDY    27  27 100 CALM      29.95S FOG
FARIBAULT      CLOUDY    27  25  93 CALM      29.96F FOG
$$

...ELSEWHERE IN MINNESOTA...


CITY           SKY/WX    TMP DP  RH WIND       PRES   REMARKS
MINNEAPOLIS    CLOUDY    28  24  85 CALM      29.98F FOG
INTNL FALLS    CLEAR     29  21  72 SW7       29.86S WCI  22
DULUTH         CLOUDY    24  21  88 SW6       29.93F WCI  17
RED WING       CLOUDY    28  25  86 CALM      29.98F FOG
REDWOOD FALLS  CLOUDY    30  24  78 E3        29.96F HAZE
MANKATO        CLOUDY    26  22  84 E5        29.97F FOG     WCI  20
WORTHINGTON    CLEAR     34  28  79 CALM      29.94F
FAIRMONT       CLOUDY    31  24  75 NE3       29.96S
$$

...SOUTHWEST WISCONSIN...


CITY           SKY/WX    TMP DP  RH WIND       PRES   REMARKS
LA CROSSE      CLOUDY    32  28  85 CALM      29.98S
PRAIRIE DU CHI CLOUDY    35  29  79 CALM      29.99R HAZE
BOSCOBEL       CLOUDY    35  29  78 NE3       29.99R
LONE ROCK      NOT AVBL
PLATTEVILLE    CLOUDY    36  32  87 CALM      29.97R
FORT MC COY    CLOUDY    31  28  90 CALM      29.98F FOG
MAUSTON-NEW LI CLOUDY    32  29  89 CALM      29.96F FOG
VIROQUA        CLOUDY    30  30 100 CALM      29.95S
WIS DELLS      CLOUDY    32  29  88 NE3       29.96F FOG
$$

...ELSEWHERE IN WISCONSIN...


CITY           SKY/WX    TMP DP  RH WIND       PRES   REMARKS
MILWAUKEE      CLOUDY    36  33  89 CALM      29.98F FOG
MADISON        CLOUDY    33  29  85 SE5       29.99R FOG     WCI  29
GREEN BAY      CLOUDY    31  26  82 SE3       30.01F
EAU CLAIRE     NOT AVBL
BLACK RVR FLS  CLOUDY    31  27  82 CALM      29.97F
MEDFORD        CLOUDY    26  24  95 CALM      29.96F FOG
WAUSAU         CLOUDY    27  25  92 S3        29.96F
WIS RAPIDS     CLOUDY    29  26  89 NE5       29.98F FOG     WCI  24
MARSHFIELD     CLOUDY    28  26  92 NE3       29.95F FOG
RICE LAKE      LGT SNOW  28  27  96 CALM      29.98F
$$

...NORTHEAST IOWA...


CITY           SKY/WX    TMP DP  RH WIND       PRES   REMARKS
WATERLOO       CLOUDY    35  30  82 NE6       29.95S HAZE    WCI  30
DUBUQUE        CLOUDY    34  30  85 E5        29.95F FOG     WCI  30
DECORAH        CLOUDY    32  30  93 CALM      29.95S FOG
MASON CITY     CLOUDY    28  27  96 CALM      29.97R FOG
CHARLES CITY   NOT AVBL
OELWEIN        CLOUDY    36  34  93 E5        29.95S FOG     WCI  32
$$

...ELSEWHERE IN IOWA...


CITY           SKY/WX    TMP DP  RH WIND       PRES   REMARKS
DES MOINES     CLOUDY    38  31  76 CALM      29.95S
IOWA CITY      CLOUDY    40  34  79 CALM      29.99R
FORT DODGE     CLOUDY    31  28  89 N5        29.97R WCI  26
MARSHALLTOWN   CLOUDY    37  30  75 E5        29.94S WCI  33
CEDAR RAPIDS   CLOUDY    38  30  73 CALM      29.95R
$$

...NORTHERN ILLINOIS...


CITY           SKY/WX    TMP DP  RH WIND       PRES   REMARKS
CHICAGO-OHARE  CLOUDY    41  32  70 CALM      29.97S
CHICAGO-MIDWAY CLOUDY    46  31  55 CALM      29.98S
MOLINE         CLOUDY    44  33  65 W5        29.97R
ROCKFORD       CLOUDY    38  32  79 SE3       30.00R
PEORIA         CLOUDY    46  42  86 SW6       30.00R
$$

NOTE: "FAIR" INDICATES FEW OR NO CLOUDS BELOW 12,000 FEET WITH NO
SIGNIFICANT WEATHER AND/OR OBSTRUCTIONS TO VISIBILITY. WIND
SPEEDS ARE IN MILES-PER-HOUR.




USA.gov is the U.S. government's official web portal to all federal, state and local government web resources and services.